Powrót do katalogu

THOR BURNER 2 R/B

AktywnySSO
NORAD 3522·ROCKET BODY·🇺🇸 United States

Wystrzelony Oct 23, 1968 z Vandenberg Space Force Base

Loading…

Następne Przeloty (najbliższe 24 godziny)

TLE

ŚwieżeSource: Space-Track

Epoka: Sep 14, 2026, 21:16 UTC

1 03522U 68092B   26257.88664555  .00000106  00000-0  57731-4 0  9990
2 03522  98.8304  51.0383 0027759 264.9863  94.8151 14.31065206 13116

Śledź THOR BURNER 2 R/B w czasie rzeczywistym z AllMySat

Download on the App Store